[[{"header":{"parameterUnit":"m.s-1","parameterCategory":1,"la1":30.2991,"la2":30.254,"lo1":-89.0895,"lo2":-89.0444,"dy":0.0017,"dx":0.0017,"nx":28,"ny":28,"refTime":"2024-12-03T03:00:00:Z","depth":0,"parameterNumber":2,"parameterNumberName":"U-component_of_WINDS"},"data":[0,0,0,0,0,0,0,0,0,0,0,0,0,0,0,0,0,0,0,0,0,0,0,0,0,0,0,0,0,0,0,0,0,0,0,0,0,0,0,0,0,0,0,0,0,0,0,0,0,0,0,0,0,0,0,0,0,0,-3.7301,-3.7301,0,-3.7357,-3.7358,-3.7359,-3.7275,-3.7272,-3.7269,-3.7266,-3.7323,-3.7327,-3.7331,0,0,0,0,0,0,0,0,0,0,0,0,0,-3.7117,-3.7121,-3.7301,-3.7301,-3.7302,-3.7357,-3.7358,-3.7359,-3.7275,-3.7272,-3.7268,-3.7265,-3.7321,-3.7326,-3.7332,0,0,0,0,0,0,0,0,0,0,0,0,0,-3.7188,-3.7122,-3.73,-3.7267,-3.7265,-3.7357,-3.7358,-3.7359,-3.7276,-3.7272,-3.7267,-3.7263,-3.732,-3.7326,-3.7332,-3.746,0,0,-3.7352,-3.7354,0,0,0,0,0,0,0,0,-3.7184,-3.7195,-3.7271,-3.727,-3.7267,-3.7304,-3.7314,-3.7393,-3.7277,-3.7272,-3.7266,-3.7261,-3.732,-3.7326,-3.7347,-3.7462,-3.7465,-3.7352,-3.7356,-3.7359,-3.7361,0,0,0,0,0,0,0,-3.7179,-3.7192,-3.7323,-3.7272,-3.727,-3.7248,-3.7253,-3.7329,-3.732,-3.7272,-3.7266,-3.7274,-3.7318,-3.7341,-3.7347,-3.7465,-3.7352,-3.7358,-3.7362,-3.7364,-3.7685,-3.769,0,0,0,0,0,0,-3.7179,-3.7188,-3.7321,-3.7325,-3.7214,-3.7255,-3.7261,-3.7297,-3.7319,-3.7318,-3.7278,-3.727,-3.7332,-3.734,-3.7349,-3.7497,-3.7359,-3.7365,-3.7368,-3.7681,-3.7686,-3.7692,0,0,0,0,0,0,-3.7175,-3.7191,-3.7319,-3.7255,-3.7269,-3.7263,-3.7304,-3.73,-3.7323,-3.7323,-3.7321,-3.7302,-3.7329,-3.734,-3.7432,-3.7498,-3.7368,-3.7373,-3.7675,-3.7683,-3.7689,-3.7796,0,0,0,0,0,0,-3.717,-3.719,-3.724,-3.7257,-3.7273,-3.7402,-3.7308,-3.7305,-3.7334,-3.7324,-3.7346,-3.7345,-3.7326,-3.7423,-3.7438,-3.7504,-3.7378,-3.7669,-3.7678,-3.7687,-3.7787,-3.7806,-3.7823,0,0,0,0,0,-3.7164,-3.7268,-3.7242,-3.7259,-3.7335,-3.7406,-3.7416,-3.7392,-3.734,-3.7388,-3.7388,-3.7344,-3.7489,-3.7433,-3.745,-3.7519,-3.7665,-3.7676,-3.7686,-3.7779,-3.7802,-3.7822,0,0,0,0,0,0,-3.7259,-3.7269,-3.7241,-3.7354,-3.738,-3.7392,-3.7453,-3.7418,-3.7459,-3.7448,-3.7417,-3.7423,-3.7521,-3.7529,-3.7467,-3.7642,-3.7568,-3.7582,-3.7632,-3.7655,-3.7672,-3.7668,-3.7384,0,0,0,0,0,-3.7293,-3.7351,-3.7357,-3.7456,-3.747,-3.746,-3.749,-3.7469,-3.7495,-3.7505,-3.7512,-3.7537,-3.7588,-3.7622,-3.7669,-3.7788,-3.779,-3.7843,-3.7861,-3.7876,-3.7888,-3.7949,-3.7972,-3.7726,-3.7726,-3.7726,0,0,-3.7364,-3.7377,-3.7415,-3.7475,-3.7492,-3.7552,-3.7469,-3.7536,-3.758,-3.7515,-3.7602,-3.7608,-3.7634,-3.774,-3.7786,-3.7749,-3.7957,-3.7889,-3.7901,-3.7905,-3.7962,-3.7985,-3.8006,-3.7734,-3.7732,-3.7731,0,0,-3.7522,-3.7539,-3.7622,-3.7641,-3.7669,-3.7661,-3.7681,-3.7698,-3.7699,-3.7786,-3.7738,-3.7789,-3.7878,-3.7898,-3.792,-3.8085,-3.8045,-3.8101,-3.8194,-3.8254,-3.8273,-3.829,-3.8346,-3.8367,-3.8114,-3.8114,-3.8114,0,-3.7607,-3.7695,-3.7669,-3.7739,-3.7766,-3.771,-3.7793,-3.7812,-3.7854,-3.7873,-3.7832,-3.794,-3.7954,-3.8062,-3.8102,-3.8123,-3.8143,-3.8098,-3.8273,-3.8289,-3.8305,-3.8358,-3.838,-3.812,-3.812,-3.8119,-3.8118,0,-3.7796,-3.7858,-3.7922,-3.7963,-3.7997,-3.8073,-3.8057,-3.8095,-3.8071,-3.8067,-3.8155,-3.817,-3.8218,-3.8242,-3.8221,-3.8347,-3.8323,-3.8278,-3.8202,-3.8335,-3.8384,-3.8405,-3.813,-3.8127,-3.8125,-3.8124,0,0,-3.8016,-3.8041,-3.8064,-3.8081,-3.8107,-3.8154,-3.8227,-3.8274,-3.8305,-3.8336,-3.8394,-3.847,-3.8428,-3.8453,-3.8433,-3.8486,-3.8612,-3.8433,-3.8433,-3.8464,-3.8749,-3.8781,-3.8806,-3.8587,-3.859,-3.8594,-3.8746,0,-3.8173,-3.8298,-3.8276,-3.8398,-3.8454,-3.8401,-3.8464,-3.8486,-3.8485,-3.853,-3.8528,-3.8581,-3.8523,-3.8537,-3.8587,-3.8586,-3.8669,-3.8575,-3.8639,-3.8642,-3.8632,-3.8832,-3.8866,-3.901,-3.8766,-3.8769,-3.8771,0,-3.8372,-3.8409,-3.8536,-3.8551,-3.8574,-3.8631,-3.8671,-3.8716,-3.8739,-3.8734,-3.8762,-3.8731,-3.8802,-3.8727,-3.8823,-3.876,-3.8785,-3.8788,-3.8793,-3.8797,-3.8713,-3.8838,-3.9055,-3.9076,-3.8802,-3.88,-3.8797,0,-3.8516,-3.8598,-3.8684,-3.8701,-3.8721,-3.8762,-3.8772,-3.8791,-3.882,-3.8855,-3.8873,-3.8916,-3.8939,-3.8973,-3.8954,-3.8902,-3.9052,-3.8977,-3.9048,-3.9049,-3.9081,-3.9078,-3.9302,-3.9101,-3.9101,-3.91,-3.91,0,-3.8692,-3.8771,-3.8749,-3.8802,-3.8888,-3.8862,-3.8948,-3.8952,-3.8969,-3.9021,-3.8979,-3.9028,-3.9001,-3.9048,-3.9034,-3.9114,-3.9125,-3.9122,-3.9116,-3.9124,-3.9124,-3.9138,-3.9127,-3.9106,-3.9105,-3.9104,-3.9103,0,-3.8867,-3.8856,-3.8946,-3.8957,-3.8962,-3.9025,-3.9034,-3.9083,-3.9078,-3.9143,-3.9157,-3.9149,-3.9201,-3.9186,-3.9244,-3.9234,-3.9335,-3.9318,-3.9327,-3.9322,-3.9393,-3.9386,-3.9632,-3.9662,-3.9444,-3.9446,-3.9448,0,-3.8979,-3.9039,-3.9056,-3.9088,-3.9101,-3.9153,-3.9182,-3.9158,-3.9189,-3.9219,-3.9264,-3.9313,-3.935,-3.9437,-3.9435,-3.9478,-3.9461,-3.9544,-3.9467,-3.9472,-3.9459,-3.9454,-3.9459,-3.9559,-3.9561,-3.9563,-3.9565,0,-3.9178,-3.9169,-3.9212,-3.9254,-3.929,-3.9321,-3.9349,-3.9377,-3.9354,-3.9392,-3.9445,-3.9474,-3.9532,-3.958,-3.9619,-3.9629,-3.9593,-3.959,-3.9608,-3.9615,-3.9616,-3.9614,-3.9366,-3.9583,-3.9582,-3.958,-3.9579,-3.9578,-3.9323,-3.9372,-3.9392,-3.9441,-3.9459,-3.9486,-3.9531,-3.9531,-3.9575,-3.962,-3.9604,-3.9664,-3.9684,-3.9732,-3.9747,-3.9793,-3.9761,-3.9788,-3.9794,-3.9801,-3.9809,-3.9611,-3.98,-3.98,-3.9799,-3.9799,-3.9798,0,-3.9517,-3.9526,-3.9572,-3.9612,-3.965,-3.9614,-3.9642,-3.9676,-3.973,-3.9752,-3.9789,-3.9849,-3.9896,-3.9898,-3.9941,-3.9977,-3.9961,-3.9989,-3.9985,-3.9987,-3.9836,-3.9815,-4.0001,-4.0,-4.0,-4.0,-4.0,-4.0,-3.9622,-3.9703,-3.9696,-3.9785,-3.9794,-3.9853,-3.9872,-3.9895,-3.9912,-3.9981,-4.0019,-4.002,-4.0034,-4.0077,-4.0117,-4.0116,-4.0133,-4.0166,-4.0159,-4.0018,-3.9998,-3.9978,-3.9958,-4.0171,-4.0171,-4.0305,-4.0307,-4.0308]},{"header":{"parameterUnit":"m.s-1","parameterCategory":1,"la1":30.2991,"la2":30.254,"lo1":-89.0895,"lo2":-89.0444,"dy":0.0017,"dx":0.0017,"nx":28,"ny":28,"refTime":"2024-12-03T03:00:00:Z","depth":0,"parameterNumber":3,"parameterNumberName":"V-component_of_WINDS"},"data":[0,0,0,0,0,0,0,0,0,0,0,0,0,0,0,0,0,0,0,0,0,0,0,0,0,0,0,0,0,0,0,0,0,0,0,0,0,0,0,0,0,0,0,0,0,0,0,0,0,0,0,0,0,0,0,0,0,0,-3.1148,-3.1149,0,-3.1212,-3.1212,-3.1213,-3.1183,-3.1182,-3.118,-3.1178,-3.1242,-3.1245,-3.1248,0,0,0,0,0,0,0,0,0,0,0,0,0,-3.0998,-3.1001,-3.1148,-3.1149,-3.115,-3.1212,-3.1212,-3.1213,-3.1183,-3.1181,-3.118,-3.1178,-3.1241,-3.1244,-3.1248,0,0,0,0,0,0,0,0,0,0,0,0,0,-3.1062,-3.1002,-3.1148,-3.1142,-3.1142,-3.1211,-3.1212,-3.1213,-3.1184,-3.1181,-3.1179,-3.1177,-3.1239,-3.1244,-3.1249,-3.1327,0,0,-3.1263,-3.1265,0,0,0,0,0,0,0,0,-3.1059,-3.1068,-3.1142,-3.1143,-3.1143,-3.1187,-3.1183,-3.1251,-3.1184,-3.1168,-3.1178,-3.1176,-3.1225,-3.1231,-3.1248,-3.1329,-3.1332,-3.1264,-3.1267,-3.1269,-3.127,0,0,0,0,0,0,0,-3.1054,-3.1065,-3.1173,-3.1143,-3.1144,-3.1135,-3.1142,-3.1195,-3.1209,-3.1169,-3.1167,-3.1175,-3.1225,-3.1244,-3.125,-3.1333,-3.1264,-3.1268,-3.1271,-3.1273,-3.1479,-3.1481,0,0,0,0,0,0,-3.105,-3.1061,-3.1171,-3.1175,-3.1094,-3.114,-3.1147,-3.1175,-3.1209,-3.1212,-3.1177,-3.1174,-3.1237,-3.1244,-3.1252,-3.1343,-3.1269,-3.1273,-3.1276,-3.1476,-3.1479,-3.1482,0,0,0,0,0,0,-3.1047,-3.106,-3.1169,-3.1118,-3.1131,-3.1145,-3.1177,-3.1178,-3.1196,-3.1215,-3.1217,-3.1194,-3.1235,-3.1245,-3.1308,-3.1345,-3.1275,-3.128,-3.1473,-3.1477,-3.1481,-3.1528,0,0,0,0,0,0,-3.1043,-3.1059,-3.109,-3.1119,-3.1134,-3.1225,-3.1179,-3.1181,-3.1205,-3.1201,-3.1231,-3.1234,-3.1234,-3.1301,-3.1312,-3.135,-3.1283,-3.147,-3.1475,-3.148,-3.1523,-3.1533,-3.1542,0,0,0,0,0,-3.1038,-3.1101,-3.1092,-3.1105,-3.1172,-3.1227,-3.1235,-3.1235,-3.1208,-3.1238,-3.125,-3.1233,-3.1339,-3.1307,-3.132,-3.136,-3.1467,-3.1473,-3.1479,-3.1519,-3.1531,-3.1541,0,0,0,0,0,0,-3.1076,-3.1105,-3.1095,-3.1169,-3.1196,-3.1222,-3.126,-3.1248,-3.1283,-3.1277,-3.1275,-3.1282,-3.1346,-3.136,-3.1324,-3.1436,-3.1399,-3.1408,-3.1425,-3.1437,-3.1446,-3.1441,-3.1287,0,0,0,0,0,-3.1093,-3.1136,-3.1158,-3.1222,-3.1236,-3.1246,-3.1269,-3.1267,-3.1294,-3.1305,-3.1321,-3.1347,-3.1386,-3.1412,-3.145,-3.1525,-3.153,-3.1559,-3.1568,-3.1575,-3.1583,-3.1622,-3.1634,-3.1501,-3.1501,-3.1501,0,0,-3.1129,-3.115,-3.1177,-3.123,-3.125,-3.1293,-3.1255,-3.1303,-3.1334,-3.1312,-3.1372,-3.1385,-3.1414,-3.1483,-3.1514,-3.1496,-3.1621,-3.1583,-3.1589,-3.1592,-3.1629,-3.1642,-3.1653,-3.1505,-3.1505,-3.1504,0,0,-3.1216,-3.1237,-3.1291,-3.1312,-3.1343,-3.1349,-3.1362,-3.139,-3.1397,-3.1457,-3.1441,-3.1478,-3.1546,-3.1567,-3.1587,-3.168,-3.1665,-3.1692,-3.174,-3.1778,-3.1788,-3.1797,-3.1829,-3.1841,-3.1699,-3.1699,-3.17,0,-3.1256,-3.1321,-3.132,-3.1369,-3.1392,-3.1373,-3.1427,-3.1448,-3.1489,-3.1505,-3.1484,-3.1568,-3.1587,-3.166,-3.1682,-3.1699,-3.1713,-3.1688,-3.1787,-3.1796,-3.1805,-3.1835,-3.1847,-3.1702,-3.1702,-3.1702,-3.1701,0,-3.1368,-3.1414,-3.1454,-3.1494,-3.1522,-3.1573,-3.1578,-3.1606,-3.1601,-3.1608,-3.1669,-3.169,-3.1731,-3.1748,-3.1743,-3.182,-3.1807,-3.1787,-3.1749,-3.182,-3.1849,-3.186,-3.1707,-3.1706,-3.1705,-3.1704,0,0,-3.1481,-3.152,-3.1535,-3.1552,-3.1585,-3.1619,-3.1668,-3.1708,-3.1731,-3.176,-3.1801,-3.1858,-3.1839,-3.1861,-3.1859,-3.1892,-3.1963,-3.1868,-3.1868,-3.1883,-3.2046,-3.2061,-3.2074,-3.1953,-3.1955,-3.1957,-3.2043,0,-3.157,-3.1657,-3.1657,-3.1737,-3.1778,-3.176,-3.1803,-3.1827,-3.1835,-3.187,-3.1879,-3.1919,-3.1892,-3.1904,-3.1937,-3.1947,-3.1995,-3.1941,-3.199,-3.1991,-3.1982,-3.2089,-3.2105,-3.2185,-3.2055,-3.2056,-3.2058,0,-3.1684,-3.1717,-3.1801,-3.1826,-3.1843,-3.1882,-3.1917,-3.1952,-3.1977,-3.1981,-3.2005,-3.1997,-3.2046,-3.2007,-3.2074,-3.2037,-3.2057,-3.2065,-3.2068,-3.2071,-3.2028,-3.2095,-3.2211,-3.2222,-3.2076,-3.2074,-3.2073,0,-3.1756,-3.1821,-3.188,-3.1895,-3.1926,-3.1954,-3.1968,-3.1991,-3.2015,-3.2046,-3.206,-3.2097,-3.2116,-3.2144,-3.2145,-3.2117,-3.2211,-3.2173,-3.2214,-3.2214,-3.2235,-3.2233,-3.2354,-3.2249,-3.2249,-3.2249,-3.2249,0,-3.1854,-3.1906,-3.1912,-3.1948,-3.2005,-3.2004,-3.206,-3.2071,-3.2092,-3.2129,-3.2116,-3.2151,-3.2151,-3.2186,-3.2187,-3.2241,-3.225,-3.2253,-3.2253,-3.2254,-3.2253,-3.2266,-3.226,-3.2252,-3.2251,-3.2251,-3.225,0,-3.1944,-3.1951,-3.2013,-3.2037,-3.2044,-3.2085,-3.2105,-3.2138,-3.2145,-3.2192,-3.2202,-3.2213,-3.2253,-3.2257,-3.2304,-3.2304,-3.2369,-3.2363,-3.2361,-3.2359,-3.2399,-3.2395,-3.2532,-3.255,-3.2434,-3.2435,-3.2436,0,-3.2006,-3.2045,-3.2073,-3.2097,-3.2113,-3.2151,-3.2175,-3.2175,-3.22,-3.2231,-3.2261,-3.23,-3.2331,-3.2396,-3.2407,-3.2442,-3.2436,-3.2482,-3.2441,-3.2441,-3.2435,-3.2432,-3.2436,-3.2489,-3.2491,-3.2492,-3.2493,0,-3.2114,-3.2115,-3.215,-3.2185,-3.2214,-3.2242,-3.2268,-3.2288,-3.2291,-3.2319,-3.236,-3.2385,-3.2432,-3.247,-3.2505,-3.2518,-3.2506,-3.2505,-3.2516,-3.2517,-3.2514,-3.2515,-3.2381,-3.2502,-3.2501,-3.25,-3.25,-3.2499,-3.2191,-3.2224,-3.2249,-3.2287,-3.2307,-3.2332,-3.2364,-3.2374,-3.2409,-3.2447,-3.2445,-3.249,-3.2513,-3.2558,-3.2574,-3.2608,-3.2593,-3.261,-3.2613,-3.2617,-3.2621,-3.2509,-3.2615,-3.2615,-3.2614,-3.2614,-3.2614,0,-3.2297,-3.2311,-3.2347,-3.2384,-3.2414,-3.24,-3.2428,-3.2454,-3.2494,-3.2517,-3.2547,-3.2594,-3.2631,-3.2644,-3.268,-3.2705,-3.27,-3.2714,-3.2712,-3.2715,-3.2633,-3.2619,-3.2717,-3.2717,-3.2717,-3.2717,-3.2717,-3.2717,-3.2355,-3.2411,-3.2414,-3.2479,-3.2493,-3.2537,-3.2554,-3.2576,-3.2594,-3.2647,-3.2677,-3.2686,-3.2705,-3.2742,-3.2774,-3.2777,-3.279,-3.2807,-3.2807,-3.2731,-3.272,-3.2711,-3.2697,-3.281,-3.281,-3.2886,-3.2886,-3.2887]}]]